Year,Month,Day,Hour,Minute,Value (Times are PST for temperature in C)
2021,06,27,00,00,23.10
2021,06,27,00,01,23.10
2021,06,27,00,02,23.10
2021,06,27,00,03,23.10
2021,06,27,00,04,23.10
2021,06,27,00,05,23.00
2021,06,27,00,06,23.00
2021,06,27,00,07,23.00
2021,06,27,00,08,22.90
2021,06,27,00,09,22.90
2021,06,27,00,10,22.90
2021,06,27,00,11,22.90
2021,06,27,00,12,22.80
2021,06,27,00,13,22.80
2021,06,27,00,14,22.80
2021,06,27,00,15,22.80
2021,06,27,00,16,22.80
2021,06,27,00,17,22.70
2021,06,27,00,18,22.70
2021,06,27,00,19,22.70
2021,06,27,00,20,22.70
2021,06,27,00,21,22.70
2021,06,27,00,22,22.60
2021,06,27,00,23,22.60
2021,06,27,00,24,22.60
2021,06,27,00,25,22.60
2021,06,27,00,26,22.60
2021,06,27,00,27,22.50
2021,06,27,00,28,22.50
2021,06,27,00,29,22.50
2021,06,27,00,30,22.50
2021,06,27,00,31,22.40
2021,06,27,00,32,22.40
2021,06,27,00,33,22.40
2021,06,27,00,34,22.40
2021,06,27,00,35,22.40
2021,06,27,00,36,22.30
2021,06,27,00,37,22.30
2021,06,27,00,38,22.30
2021,06,27,00,39,22.30
2021,06,27,00,40,22.30
2021,06,27,00,41,22.30
2021,06,27,00,42,22.30
2021,06,27,00,43,22.30
2021,06,27,00,44,22.30
2021,06,27,00,45,22.40
2021,06,27,00,46,22.40
2021,06,27,00,47,22.40
2021,06,27,00,48,22.40
2021,06,27,00,49,22.50
2021,06,27,00,50,22.50
2021,06,27,00,51,22.50
2021,06,27,00,52,22.50
2021,06,27,00,53,22.50
2021,06,27,00,54,22.50
2021,06,27,00,55,22.40
2021,06,27,00,56,22.40
2021,06,27,00,57,22.40
2021,06,27,00,58,22.40
2021,06,27,00,59,22.40
2021,06,27,01,00,22.40
2021,06,27,01,01,22.30
2021,06,27,01,02,22.30
2021,06,27,01,03,22.30
2021,06,27,01,04,22.20
2021,06,27,01,05,22.20
2021,06,27,01,06,22.10
2021,06,27,01,07,22.10
2021,06,27,01,08,22.10
2021,06,27,01,09,22.10
2021,06,27,01,10,22.10
2021,06,27,01,11,22.00
2021,06,27,01,12,22.00
2021,06,27,01,13,22.10
2021,06,27,01,14,22.10
2021,06,27,01,15,22.10
2021,06,27,01,16,22.10
2021,06,27,01,17,22.00
2021,06,27,01,18,22.00
2021,06,27,01,19,22.00
2021,06,27,01,20,22.00
2021,06,27,01,21,22.00
2021,06,27,01,22,22.00
2021,06,27,01,23,22.00
2021,06,27,01,24,22.00
2021,06,27,01,25,22.00
2021,06,27,01,26,22.00
2021,06,27,01,27,21.90
2021,06,27,01,28,21.90
2021,06,27,01,29,21.90
2021,06,27,01,30,21.90
2021,06,27,01,31,21.90
2021,06,27,01,32,21.90
2021,06,27,01,33,21.90
2021,06,27,01,34,22.00
2021,06,27,01,35,22.00
2021,06,27,01,36,22.00
2021,06,27,01,37,22.00
2021,06,27,01,38,22.00
2021,06,27,01,39,22.00
2021,06,27,01,40,21.90
2021,06,27,01,41,21.90
2021,06,27,01,42,21.90
2021,06,27,01,43,21.80
2021,06,27,01,44,21.70
2021,06,27,01,45,21.60
2021,06,27,01,46,21.60
2021,06,27,01,47,21.70
2021,06,27,01,48,21.80
2021,06,27,01,49,21.90
2021,06,27,01,50,22.00
2021,06,27,01,51,22.00
2021,06,27,01,52,22.10
2021,06,27,01,53,22.00
2021,06,27,01,54,22.10
2021,06,27,01,55,22.00
2021,06,27,01,56,22.00
2021,06,27,01,57,22.00
2021,06,27,01,58,22.00
2021,06,27,01,59,22.00
2021,06,27,02,00,22.00
2021,06,27,02,01,21.90
2021,06,27,02,02,21.90
2021,06,27,02,03,21.90
2021,06,27,02,04,21.90
2021,06,27,02,05,21.90
2021,06,27,02,06,21.90
2021,06,27,02,07,21.90
2021,06,27,02,08,21.80
2021,06,27,02,09,21.80
2021,06,27,02,10,21.80
2021,06,27,02,11,21.70
2021,06,27,02,12,21.70
2021,06,27,02,13,21.70
2021,06,27,02,14,21.60
2021,06,27,02,15,21.60
2021,06,27,02,16,21.40
2021,06,27,02,17,21.30
2021,06,27,02,18,21.20
2021,06,27,02,19,21.00
2021,06,27,02,20,20.90
2021,06,27,02,21,20.80
2021,06,27,02,22,20.70
2021,06,27,02,23,20.70
2021,06,27,02,24,20.60
2021,06,27,02,25,20.60
2021,06,27,02,26,20.50
2021,06,27,02,27,20.50
2021,06,27,02,28,20.50
2021,06,27,02,29,20.40
2021,06,27,02,30,20.40
2021,06,27,02,31,20.30
2021,06,27,02,32,20.30
2021,06,27,02,33,20.20
2021,06,27,02,34,20.20
2021,06,27,02,35,20.20
2021,06,27,02,36,20.20
2021,06,27,02,37,20.20
2021,06,27,02,38,20.20
2021,06,27,02,39,20.10
2021,06,27,02,40,20.10
2021,06,27,02,41,20.10
2021,06,27,02,42,20.10
2021,06,27,02,43,20.10
2021,06,27,02,44,20.00
2021,06,27,02,45,20.00
2021,06,27,02,46,20.00
2021,06,27,02,47,20.00
2021,06,27,02,48,20.00
2021,06,27,02,49,20.00
2021,06,27,02,50,20.10
2021,06,27,02,51,20.00
2021,06,27,02,52,20.00
2021,06,27,02,53,19.90
2021,06,27,02,54,19.90
2021,06,27,02,55,19.90
2021,06,27,02,56,19.80
2021,06,27,02,57,19.80
2021,06,27,02,58,19.80
2021,06,27,02,59,19.80
2021,06,27,03,00,19.80
2021,06,27,03,01,19.80
2021,06,27,03,02,19.80
2021,06,27,03,03,19.80
2021,06,27,03,04,19.80
2021,06,27,03,05,19.80
2021,06,27,03,06,19.80
2021,06,27,03,07,19.80
2021,06,27,03,08,19.80
2021,06,27,03,09,19.80
2021,06,27,03,10,19.80
2021,06,27,03,11,19.80
2021,06,27,03,12,19.90
2021,06,27,03,13,19.90
2021,06,27,03,14,19.90
2021,06,27,03,15,19.90
2021,06,27,03,16,19.80
2021,06,27,03,17,19.80
2021,06,27,03,18,19.80
2021,06,27,03,19,19.80
2021,06,27,03,20,19.80
2021,06,27,03,21,19.80
2021,06,27,03,22,19.80
2021,06,27,03,23,19.80
2021,06,27,03,24,19.70
2021,06,27,03,25,19.70
2021,06,27,03,26,19.70
2021,06,27,03,27,19.70
2021,06,27,03,28,19.70
2021,06,27,03,29,19.70
2021,06,27,03,30,19.70
2021,06,27,03,31,19.70
2021,06,27,03,32,19.70
2021,06,27,03,33,19.70
2021,06,27,03,34,19.70
2021,06,27,03,35,19.70
2021,06,27,03,36,19.70
2021,06,27,03,37,19.70
2021,06,27,03,38,19.70
2021,06,27,03,39,19.70
2021,06,27,03,40,19.70
2021,06,27,03,41,19.80
2021,06,27,03,42,19.80
2021,06,27,03,43,19.80
2021,06,27,03,44,19.80
2021,06,27,03,45,19.80
2021,06,27,03,46,19.90
2021,06,27,03,47,19.90
2021,06,27,03,48,19.90
2021,06,27,03,49,19.90
2021,06,27,03,50,19.90
2021,06,27,03,51,19.90
2021,06,27,03,52,19.80
2021,06,27,03,53,19.80
2021,06,27,03,54,19.80
2021,06,27,03,55,19.80
2021,06,27,03,56,19.80
2021,06,27,03,57,19.80
2021,06,27,03,58,19.80
2021,06,27,03,59,19.80
2021,06,27,04,00,19.80
2021,06,27,04,01,19.80
2021,06,27,04,02,19.80
2021,06,27,04,03,19.90
2021,06,27,04,04,19.90
2021,06,27,04,05,19.90
2021,06,27,04,06,19.90
2021,06,27,04,07,19.90
2021,06,27,04,08,20.00
2021,06,27,04,09,20.00
2021,06,27,04,10,20.00
2021,06,27,04,11,20.00
2021,06,27,04,12,20.00
2021,06,27,04,13,20.00
2021,06,27,04,14,19.90
2021,06,27,04,15,19.90
2021,06,27,04,16,19.90
2021,06,27,04,17,19.90
2021,06,27,04,18,19.90
2021,06,27,04,19,19.90
2021,06,27,04,20,19.90
2021,06,27,04,21,19.90
2021,06,27,04,22,19.90
2021,06,27,04,23,19.90
2021,06,27,04,24,19.90
2021,06,27,04,25,19.90
2021,06,27,04,26,19.90
2021,06,27,04,27,19.80
2021,06,27,04,28,19.80
2021,06,27,04,29,19.80
2021,06,27,04,30,19.80
2021,06,27,04,31,19.80
2021,06,27,04,32,19.80
2021,06,27,04,33,19.80
2021,06,27,04,34,19.80
2021,06,27,04,35,19.80
2021,06,27,04,36,19.80
2021,06,27,04,37,19.80
2021,06,27,04,38,19.80
2021,06,27,04,39,19.80
2021,06,27,04,40,19.80
2021,06,27,04,41,19.80
2021,06,27,04,42,19.80
2021,06,27,04,43,19.80
2021,06,27,04,44,19.80
2021,06,27,04,45,19.80
2021,06,27,04,46,19.70
2021,06,27,04,47,19.70
2021,06,27,04,48,19.70
2021,06,27,04,49,19.70
2021,06,27,04,50,19.70
2021,06,27,04,51,19.70
2021,06,27,04,52,19.60
2021,06,27,04,53,19.60
2021,06,27,04,54,19.60
2021,06,27,04,55,19.60
2021,06,27,04,56,19.60
2021,06,27,04,57,19.60
2021,06,27,04,58,19.60
2021,06,27,04,59,19.60
2021,06,27,05,00,19.70
2021,06,27,05,01,19.70
2021,06,27,05,02,19.70
2021,06,27,05,03,19.70
2021,06,27,05,04,19.70
2021,06,27,05,05,19.70
2021,06,27,05,06,19.70
2021,06,27,05,07,19.70
2021,06,27,05,08,19.60
2021,06,27,05,09,19.60
2021,06,27,05,10,19.60
2021,06,27,05,11,19.50
2021,06,27,05,12,19.50
2021,06,27,05,13,19.40
2021,06,27,05,14,19.40
2021,06,27,05,15,19.40
2021,06,27,05,16,19.40
2021,06,27,05,17,19.40
2021,06,27,05,18,19.50
2021,06,27,05,19,19.50
2021,06,27,05,20,19.50
2021,06,27,05,21,19.50
2021,06,27,05,22,19.60
2021,06,27,05,23,19.60
2021,06,27,05,24,19.60
2021,06,27,05,25,19.60
2021,06,27,05,26,19.60
2021,06,27,05,27,19.60
2021,06,27,05,28,19.60
2021,06,27,05,29,19.60
2021,06,27,05,30,19.60
2021,06,27,05,31,19.60
2021,06,27,05,32,19.70
2021,06,27,05,33,19.70
2021,06,27,05,34,19.70
2021,06,27,05,35,19.70
2021,06,27,05,36,19.60
2021,06,27,05,37,19.60
2021,06,27,05,38,19.60
2021,06,27,05,39,19.60
2021,06,27,05,40,19.60
2021,06,27,05,41,19.50
2021,06,27,05,42,19.50
2021,06,27,05,43,19.50
2021,06,27,05,44,19.50
2021,06,27,05,45,19.50
2021,06,27,05,46,19.60
2021,06,27,05,47,19.60
2021,06,27,05,48,19.60
2021,06,27,05,49,19.60
2021,06,27,05,50,19.60
2021,06,27,05,51,19.60
2021,06,27,05,52,19.60
2021,06,27,05,53,19.60
2021,06,27,05,54,19.60
2021,06,27,05,55,19.60
2021,06,27,05,56,19.60
2021,06,27,05,57,19.60
2021,06,27,05,58,19.60
2021,06,27,05,59,19.60
2021,06,27,06,00,19.60
2021,06,27,06,01,19.50
2021,06,27,06,02,19.50
2021,06,27,06,03,19.50
2021,06,27,06,04,19.50
2021,06,27,06,05,19.50
2021,06,27,06,06,19.50
2021,06,27,06,07,19.50
2021,06,27,06,08,19.60
2021,06,27,06,09,19.60
2021,06,27,06,10,19.60
2021,06,27,06,11,19.60
2021,06,27,06,12,19.60
2021,06,27,06,13,19.60
2021,06,27,06,14,19.60
2021,06,27,06,15,19.70
2021,06,27,06,16,19.70
2021,06,27,06,17,19.70
2021,06,27,06,18,19.70
2021,06,27,06,19,19.70
2021,06,27,06,20,19.70
2021,06,27,06,21,19.70
2021,06,27,06,22,19.70
2021,06,27,06,23,19.70
2021,06,27,06,24,19.80
2021,06,27,06,25,19.80
2021,06,27,06,26,19.80
2021,06,27,06,27,19.80
2021,06,27,06,28,19.90
2021,06,27,06,29,19.90
2021,06,27,06,30,19.90
2021,06,27,06,31,19.90
2021,06,27,06,32,19.90
2021,06,27,06,33,19.90
2021,06,27,06,34,20.00
2021,06,27,06,35,20.00
2021,06,27,06,36,20.00
2021,06,27,06,37,20.10
2021,06,27,06,38,20.10
2021,06,27,06,39,20.10
2021,06,27,06,40,20.10
2021,06,27,06,41,20.20
2021,06,27,06,42,20.20
2021,06,27,06,43,20.20
2021,06,27,06,44,20.20
2021,06,27,06,45,20.20
2021,06,27,06,46,20.30
2021,06,27,06,47,20.30
2021,06,27,06,48,20.30
2021,06,27,06,49,20.30
2021,06,27,06,50,20.30
2021,06,27,06,51,20.40
2021,06,27,06,52,20.40
2021,06,27,06,53,20.40
2021,06,27,06,54,20.50
2021,06,27,06,55,20.50
2021,06,27,06,56,20.60
2021,06,27,06,57,20.60
2021,06,27,06,58,20.70
2021,06,27,06,59,20.70
2021,06,27,07,00,20.70
2021,06,27,07,01,20.80
2021,06,27,07,02,20.80
2021,06,27,07,03,20.90
2021,06,27,07,04,20.90
2021,06,27,07,05,21.00
2021,06,27,07,06,21.00
2021,06,27,07,07,21.10
2021,06,27,07,08,21.20
2021,06,27,07,09,21.30
2021,06,27,07,10,21.40
2021,06,27,07,11,21.50
2021,06,27,07,12,21.60
2021,06,27,07,13,21.60
2021,06,27,07,14,21.60
2021,06,27,07,15,21.60
2021,06,27,07,16,21.60
2021,06,27,07,17,21.60
2021,06,27,07,18,21.60
2021,06,27,07,19,21.50
2021,06,27,07,20,21.50
2021,06,27,07,21,21.40
2021,06,27,07,22,21.20
2021,06,27,07,23,21.10
2021,06,27,07,24,20.90
2021,06,27,07,25,20.70
2021,06,27,07,26,20.60
2021,06,27,07,27,20.40
2021,06,27,07,28,20.30
2021,06,27,07,29,20.10
2021,06,27,07,30,20.00
2021,06,27,07,31,20.00
2021,06,27,07,32,19.90
2021,06,27,07,33,19.80
2021,06,27,07,34,19.80
2021,06,27,07,35,19.70
2021,06,27,07,36,19.70
2021,06,27,07,37,19.70
2021,06,27,07,38,19.60
2021,06,27,07,39,19.60
2021,06,27,07,40,19.60
2021,06,27,07,41,19.60
2021,06,27,07,42,19.60
2021,06,27,07,43,19.60
2021,06,27,07,44,19.60
2021,06,27,07,45,19.70
2021,06,27,07,46,19.70
2021,06,27,07,47,19.70
2021,06,27,07,48,19.80
2021,06,27,07,49,19.80
2021,06,27,07,50,19.80
2021,06,27,07,51,19.90
2021,06,27,07,52,19.90
2021,06,27,07,53,19.90
2021,06,27,07,54,20.00
2021,06,27,07,55,20.10
2021,06,27,07,56,20.20
2021,06,27,07,57,20.20
2021,06,27,07,58,20.30
2021,06,27,07,59,20.40
2021,06,27,08,00,20.50
2021,06,27,08,01,20.70
2021,06,27,08,02,20.80
2021,06,27,08,03,20.90
2021,06,27,08,04,20.90
2021,06,27,08,05,21.00
2021,06,27,08,06,21.10
2021,06,27,08,07,21.20
2021,06,27,08,08,21.30
2021,06,27,08,09,21.40
2021,06,27,08,10,21.40
2021,06,27,08,11,21.50
2021,06,27,08,12,21.50
2021,06,27,08,13,21.60
2021,06,27,08,14,21.70
2021,06,27,08,15,21.80
2021,06,27,08,16,21.90
2021,06,27,08,17,21.90
2021,06,27,08,18,22.00
2021,06,27,08,19,22.00
2021,06,27,08,20,22.10
2021,06,27,08,21,22.10
2021,06,27,08,22,22.10
2021,06,27,08,23,22.20
2021,06,27,08,24,22.20
2021,06,27,08,25,22.30
2021,06,27,08,26,22.40
2021,06,27,08,27,22.50
2021,06,27,08,28,22.50
2021,06,27,08,29,22.60
2021,06,27,08,30,22.70
2021,06,27,08,31,22.70
2021,06,27,08,32,22.80
2021,06,27,08,33,22.80
2021,06,27,08,34,22.90
2021,06,27,08,35,22.90
2021,06,27,08,36,23.00
2021,06,27,08,37,23.10
2021,06,27,08,38,23.10
2021,06,27,08,39,23.10
2021,06,27,08,40,23.30
2021,06,27,08,41,23.60
2021,06,27,08,42,24.20
2021,06,27,08,43,24.80
2021,06,27,08,44,25.30
2021,06,27,08,45,25.70
2021,06,27,08,46,26.10
2021,06,27,08,47,26.40
2021,06,27,08,48,26.70
2021,06,27,08,49,26.90
2021,06,27,08,50,27.10
2021,06,27,08,51,27.30
2021,06,27,08,52,27.40
2021,06,27,08,53,27.60
2021,06,27,08,54,27.70
2021,06,27,08,55,27.90
2021,06,27,08,56,28.00
2021,06,27,08,57,28.00
2021,06,27,08,58,28.10
2021,06,27,08,59,28.20
2021,06,27,09,00,28.20
2021,06,27,09,01,28.30
2021,06,27,09,02,28.30
2021,06,27,09,03,28.30
2021,06,27,09,04,28.40
2021,06,27,09,05,28.40
2021,06,27,09,06,28.50
2021,06,27,09,07,28.50
2021,06,27,09,08,28.60
2021,06,27,09,09,28.60
2021,06,27,09,10,28.70
2021,06,27,09,11,28.70
2021,06,27,09,12,28.80
2021,06,27,09,13,28.80
2021,06,27,09,14,28.90
2021,06,27,09,15,28.90
2021,06,27,09,16,28.90
2021,06,27,09,17,29.00
2021,06,27,09,18,29.00
2021,06,27,09,19,29.10
2021,06,27,09,20,29.20
2021,06,27,09,21,29.20
2021,06,27,09,22,29.30
2021,06,27,09,23,29.30
2021,06,27,09,24,29.40
2021,06,27,09,25,29.50
2021,06,27,09,26,29.50
2021,06,27,09,27,29.60
2021,06,27,09,28,29.60
2021,06,27,09,29,29.60
2021,06,27,09,30,29.60
2021,06,27,09,31,29.70
2021,06,27,09,32,29.70
2021,06,27,09,33,29.80
2021,06,27,09,34,29.80
2021,06,27,09,35,29.80
2021,06,27,09,36,29.80
2021,06,27,09,37,29.80
2021,06,27,09,38,29.80
2021,06,27,09,39,29.90
2021,06,27,09,40,29.90
2021,06,27,09,41,29.90
2021,06,27,09,42,29.90
2021,06,27,09,43,29.90
2021,06,27,09,44,29.90
2021,06,27,09,45,29.90
2021,06,27,09,46,29.90
2021,06,27,09,47,29.90
2021,06,27,09,48,29.90
2021,06,27,09,49,29.90
2021,06,27,09,50,29.90
2021,06,27,09,51,29.90
2021,06,27,09,52,29.90
2021,06,27,09,53,29.90
2021,06,27,09,54,29.90
2021,06,27,09,55,29.90
2021,06,27,09,56,29.90
2021,06,27,09,57,29.90
2021,06,27,09,58,29.90
2021,06,27,09,59,29.90
2021,06,27,10,00,29.90
2021,06,27,10,01,29.90
2021,06,27,10,02,29.90
2021,06,27,10,03,29.90
2021,06,27,10,04,29.90
2021,06,27,10,05,30.00
2021,06,27,10,06,30.00
2021,06,27,10,07,30.10
2021,06,27,10,08,30.10
2021,06,27,10,09,30.10
2021,06,27,10,10,30.20
2021,06,27,10,11,30.20
2021,06,27,10,12,30.20
2021,06,27,10,13,30.30
2021,06,27,10,14,30.30
2021,06,27,10,15,30.40
2021,06,27,10,16,30.40
2021,06,27,10,17,30.50
2021,06,27,10,18,30.50
2021,06,27,10,19,30.60
2021,06,27,10,20,30.70
2021,06,27,10,21,30.70
2021,06,27,10,22,30.80
2021,06,27,10,23,30.80
2021,06,27,10,24,30.80
2021,06,27,10,25,30.90
2021,06,27,10,26,30.90
2021,06,27,10,27,31.00
2021,06,27,10,28,31.00
2021,06,27,10,29,31.10
2021,06,27,10,30,31.10
2021,06,27,10,31,31.10
2021,06,27,10,32,31.10
2021,06,27,10,33,31.10
2021,06,27,10,34,31.20
2021,06,27,10,35,31.20
2021,06,27,10,36,31.20
2021,06,27,10,37,31.20
2021,06,27,10,38,31.20
2021,06,27,10,39,31.20
2021,06,27,10,40,31.20
2021,06,27,10,41,31.10
2021,06,27,10,42,31.10
2021,06,27,10,43,31.10
2021,06,27,10,44,31.10
2021,06,27,10,45,31.10
2021,06,27,10,46,31.10
2021,06,27,10,47,31.10
2021,06,27,10,48,31.10
2021,06,27,10,49,31.10
2021,06,27,10,50,31.10
2021,06,27,10,51,31.10
2021,06,27,10,52,31.10
2021,06,27,10,53,31.10
2021,06,27,10,54,31.10
2021,06,27,10,55,31.10
2021,06,27,10,56,31.10
2021,06,27,10,57,31.10
2021,06,27,10,58,31.10
2021,06,27,10,59,31.10
2021,06,27,11,00,31.10
2021,06,27,11,01,31.10
2021,06,27,11,02,31.10
2021,06,27,11,03,31.10
2021,06,27,11,04,31.10
2021,06,27,11,05,31.10
2021,06,27,11,06,31.10
2021,06,27,11,07,31.10
2021,06,27,11,08,31.10
2021,06,27,11,09,31.10
2021,06,27,11,10,31.10
2021,06,27,11,11,31.10
2021,06,27,11,12,31.20
2021,06,27,11,13,31.20
2021,06,27,11,14,31.20
2021,06,27,11,15,31.20
2021,06,27,11,16,31.20
2021,06,27,11,17,31.20
2021,06,27,11,18,31.30
2021,06,27,11,19,31.30
2021,06,27,11,20,31.20
2021,06,27,11,21,31.30
2021,06,27,11,22,31.30
2021,06,27,11,23,31.30
2021,06,27,11,24,31.30
2021,06,27,11,25,31.30
2021,06,27,11,26,31.40
2021,06,27,11,27,31.40
2021,06,27,11,28,31.40
2021,06,27,11,29,31.40
2021,06,27,11,30,31.50
2021,06,27,11,31,31.50
2021,06,27,11,32,31.50
2021,06,27,11,33,31.60
2021,06,27,11,34,31.60
2021,06,27,11,35,31.60
2021,06,27,11,36,31.60
2021,06,27,11,37,31.60
2021,06,27,11,38,31.60
2021,06,27,11,39,31.70
2021,06,27,11,40,31.70
2021,06,27,11,41,31.70
2021,06,27,11,42,31.70
2021,06,27,11,43,31.80
2021,06,27,11,44,31.80
2021,06,27,11,45,31.80
2021,06,27,11,46,31.80
2021,06,27,11,47,31.80
2021,06,27,11,48,31.80
2021,06,27,11,49,31.80
2021,06,27,11,50,31.90
2021,06,27,11,51,31.90
2021,06,27,11,52,31.90
2021,06,27,11,53,32.00
2021,06,27,11,54,32.00
2021,06,27,11,55,32.10
2021,06,27,11,56,32.10
2021,06,27,11,57,32.10
2021,06,27,11,58,32.10
2021,06,27,11,59,32.10
2021,06,27,12,00,32.20
2021,06,27,12,01,32.20
2021,06,27,12,02,32.20
2021,06,27,12,03,32.20
2021,06,27,12,04,32.20
2021,06,27,12,05,32.30
2021,06,27,12,06,32.30
2021,06,27,12,07,32.30
2021,06,27,12,08,32.30
2021,06,27,12,09,32.40
2021,06,27,12,10,32.40
2021,06,27,12,11,32.40
2021,06,27,12,12,32.40
2021,06,27,12,13,32.50
2021,06,27,12,14,32.50
2021,06,27,12,15,32.50
2021,06,27,12,16,32.50
2021,06,27,12,17,32.60
2021,06,27,12,18,32.60
2021,06,27,12,19,32.60
2021,06,27,12,20,32.60
2021,06,27,12,21,32.70
2021,06,27,12,22,32.70
2021,06,27,12,23,32.70
2021,06,27,12,24,32.80
2021,06,27,12,25,32.90
2021,06,27,12,26,32.90
2021,06,27,12,27,32.90
2021,06,27,12,28,33.00
2021,06,27,12,29,33.00
2021,06,27,12,30,33.10
2021,06,27,12,31,33.10
2021,06,27,12,32,33.10
2021,06,27,12,33,33.10
2021,06,27,12,34,33.20
2021,06,27,12,35,33.20
2021,06,27,12,36,33.20
2021,06,27,12,37,33.10
2021,06,27,12,38,33.10
2021,06,27,12,39,33.10
2021,06,27,12,40,33.10
2021,06,27,12,41,33.10
2021,06,27,12,42,33.10
2021,06,27,12,43,33.10
2021,06,27,12,44,33.10
2021,06,27,12,45,33.10
2021,06,27,12,46,33.10
2021,06,27,12,47,33.20
2021,06,27,12,48,33.20
2021,06,27,12,49,33.20
2021,06,27,12,50,33.20
2021,06,27,12,51,33.20
2021,06,27,12,52,33.20
2021,06,27,12,53,33.10
2021,06,27,12,54,33.10
2021,06,27,12,55,33.10
2021,06,27,12,56,33.10
2021,06,27,12,57,33.10
2021,06,27,12,58,33.10
2021,06,27,12,59,33.10
2021,06,27,13,00,33.10
2021,06,27,13,01,33.10
2021,06,27,13,02,33.10
2021,06,27,13,03,33.10
2021,06,27,13,04,33.20
2021,06,27,13,05,33.20
2021,06,27,13,06,33.20
2021,06,27,13,07,33.20
2021,06,27,13,08,33.20
2021,06,27,13,09,33.20
2021,06,27,13,10,33.30
2021,06,27,13,11,33.30
2021,06,27,13,12,33.30
2021,06,27,13,13,33.40
2021,06,27,13,14,33.40
2021,06,27,13,15,33.40
2021,06,27,13,16,33.40
2021,06,27,13,17,33.40
2021,06,27,13,18,33.40
2021,06,27,13,19,33.40
2021,06,27,13,20,33.40
2021,06,27,13,21,33.50
2021,06,27,13,22,33.50
2021,06,27,13,23,33.50
2021,06,27,13,24,33.50
2021,06,27,13,25,33.60
2021,06,27,13,26,33.60
2021,06,27,13,27,33.60
2021,06,27,13,28,33.60
2021,06,27,13,29,33.70
2021,06,27,13,30,33.70
2021,06,27,13,31,33.70
2021,06,27,13,32,33.70
2021,06,27,13,33,33.70
2021,06,27,13,34,33.70
2021,06,27,13,35,33.80
2021,06,27,13,36,33.80
2021,06,27,13,37,33.80
2021,06,27,13,38,33.80
2021,06,27,13,39,33.80
2021,06,27,13,40,33.90
2021,06,27,13,41,33.90
2021,06,27,13,42,33.90
2021,06,27,13,43,34.00
2021,06,27,13,44,34.00
2021,06,27,13,45,34.00
2021,06,27,13,46,34.00
2021,06,27,13,47,34.00
2021,06,27,13,48,34.10
2021,06,27,13,49,34.10
2021,06,27,13,50,34.10
2021,06,27,13,51,34.20
2021,06,27,13,52,34.20
2021,06,27,13,53,34.20
2021,06,27,13,54,34.30
2021,06,27,13,55,34.30
2021,06,27,13,56,34.30
2021,06,27,13,57,34.30
2021,06,27,13,58,34.30
2021,06,27,13,59,34.30
2021,06,27,14,00,34.30
2021,06,27,14,01,34.30
2021,06,27,14,02,34.30
2021,06,27,14,03,34.30
2021,06,27,14,04,34.30
2021,06,27,14,05,34.30
2021,06,27,14,06,34.30
2021,06,27,14,07,34.30
2021,06,27,14,08,34.30
2021,06,27,14,09,34.20
2021,06,27,14,10,34.20
2021,06,27,14,11,34.20
2021,06,27,14,12,34.20
2021,06,27,14,13,34.20
2021,06,27,14,14,34.20
2021,06,27,14,15,34.20
2021,06,27,14,16,34.20
2021,06,27,14,17,34.20
2021,06,27,14,18,34.30
2021,06,27,14,19,34.30
2021,06,27,14,20,34.30
2021,06,27,14,21,34.30
2021,06,27,14,22,34.30
2021,06,27,14,23,34.40
2021,06,27,14,24,34.40
2021,06,27,14,25,34.40
2021,06,27,14,26,34.50
2021,06,27,14,27,34.50
2021,06,27,14,28,34.50
2021,06,27,14,29,34.50
2021,06,27,14,30,34.50
2021,06,27,14,31,34.50
2021,06,27,14,32,34.60
2021,06,27,14,33,34.60
2021,06,27,14,34,34.60
2021,06,27,14,35,34.60
2021,06,27,14,36,34.70
2021,06,27,14,37,34.70
2021,06,27,14,38,34.70
2021,06,27,14,39,34.70
2021,06,27,14,40,34.80
2021,06,27,14,41,34.80
2021,06,27,14,42,34.80
2021,06,27,14,43,34.80
2021,06,27,14,44,34.80
2021,06,27,14,45,34.90
2021,06,27,14,46,34.90
2021,06,27,14,47,34.90
2021,06,27,14,48,35.00
2021,06,27,14,49,35.00
2021,06,27,14,50,35.00
2021,06,27,14,51,35.00
2021,06,27,14,52,35.00
2021,06,27,14,53,35.10
2021,06,27,14,54,35.10
2021,06,27,14,55,35.20
2021,06,27,14,56,35.20
2021,06,27,14,57,35.20
2021,06,27,14,58,35.20
2021,06,27,14,59,35.20
2021,06,27,15,00,35.20
2021,06,27,15,01,35.30
2021,06,27,15,02,35.30
2021,06,27,15,03,35.30
2021,06,27,15,04,35.30
2021,06,27,15,05,35.30
2021,06,27,15,06,35.30
2021,06,27,15,07,35.40
2021,06,27,15,08,35.40
2021,06,27,15,09,35.50
2021,06,27,15,10,35.50
2021,06,27,15,11,35.60
2021,06,27,15,12,35.60
2021,06,27,15,13,35.60
2021,06,27,15,14,35.60
2021,06,27,15,15,35.70
2021,06,27,15,16,35.70
2021,06,27,15,17,35.70
2021,06,27,15,18,35.70
2021,06,27,15,19,35.70
2021,06,27,15,20,35.70
2021,06,27,15,21,35.70
2021,06,27,15,22,35.70
2021,06,27,15,23,35.80
2021,06,27,15,24,35.70
2021,06,27,15,25,35.70
2021,06,27,15,26,35.70
2021,06,27,15,27,35.70
2021,06,27,15,28,35.70
2021,06,27,15,29,35.70
2021,06,27,15,30,35.70
2021,06,27,15,31,35.70
2021,06,27,15,32,35.70
2021,06,27,15,33,35.70
2021,06,27,15,34,35.60
2021,06,27,15,35,35.60
2021,06,27,15,36,35.60
2021,06,27,15,37,35.70
2021,06,27,15,38,35.60
2021,06,27,15,39,35.60
2021,06,27,15,40,35.60
2021,06,27,15,41,35.60
2021,06,27,15,42,35.60
2021,06,27,15,43,35.60
2021,06,27,15,44,35.60
2021,06,27,15,45,35.60
2021,06,27,15,46,35.60
2021,06,27,15,47,35.70
2021,06,27,15,48,35.60
2021,06,27,15,49,35.60
2021,06,27,15,50,35.60
2021,06,27,15,51,35.60
2021,06,27,15,52,35.70
2021,06,27,15,53,35.60
2021,06,27,15,54,35.60
2021,06,27,15,55,35.60
2021,06,27,15,56,35.60
2021,06,27,15,57,35.50
2021,06,27,15,58,35.50
2021,06,27,15,59,35.40
2021,06,27,16,00,35.50
2021,06,27,16,01,35.50
2021,06,27,16,02,35.50
2021,06,27,16,03,35.50
2021,06,27,16,04,35.60
2021,06,27,16,05,35.60
2021,06,27,16,06,35.60
2021,06,27,16,07,35.60
2021,06,27,16,08,35.70
2021,06,27,16,09,35.70
2021,06,27,16,10,35.70
2021,06,27,16,11,35.70
2021,06,27,16,12,35.70
2021,06,27,16,13,35.70
2021,06,27,16,14,35.70
2021,06,27,16,15,35.70
2021,06,27,16,16,35.70
2021,06,27,16,17,35.70
2021,06,27,16,18,35.70
2021,06,27,16,19,35.70
2021,06,27,16,20,35.60
2021,06,27,16,21,35.60
2021,06,27,16,22,35.70
2021,06,27,16,23,35.70
2021,06,27,16,24,35.70
2021,06,27,16,25,35.70
2021,06,27,16,26,35.70
2021,06,27,16,27,35.70
2021,06,27,16,28,35.70
2021,06,27,16,29,35.70
2021,06,27,16,30,35.70
2021,06,27,16,31,35.70
2021,06,27,16,32,35.70
2021,06,27,16,33,35.70
2021,06,27,16,34,35.80
2021,06,27,16,35,35.80
2021,06,27,16,36,35.80
2021,06,27,16,37,35.80
2021,06,27,16,38,35.80
2021,06,27,16,39,35.80
2021,06,27,16,40,35.80
2021,06,27,16,41,35.80
2021,06,27,16,42,35.90
2021,06,27,16,43,35.90
2021,06,27,16,44,35.90
2021,06,27,16,45,35.80
2021,06,27,16,46,35.80
2021,06,27,16,47,35.80
2021,06,27,16,48,35.80
2021,06,27,16,49,35.80
2021,06,27,16,50,35.80
2021,06,27,16,51,35.80
2021,06,27,16,52,35.80
2021,06,27,16,53,35.80
2021,06,27,16,54,35.70
2021,06,27,16,55,35.70
2021,06,27,16,56,35.70
2021,06,27,16,57,35.70
2021,06,27,16,58,35.80
2021,06,27,16,59,35.80
2021,06,27,17,00,35.80
2021,06,27,17,01,35.80
2021,06,27,17,02,35.80
2021,06,27,17,03,35.90
2021,06,27,17,04,35.90
2021,06,27,17,05,36.00
2021,06,27,17,06,36.00
2021,06,27,17,07,36.10
2021,06,27,17,08,36.10
2021,06,27,17,09,36.10
2021,06,27,17,10,36.20
2021,06,27,17,11,36.20
2021,06,27,17,12,36.20
2021,06,27,17,13,36.30
2021,06,27,17,14,36.30
2021,06,27,17,15,36.30
2021,06,27,17,16,36.30
2021,06,27,17,17,36.30
2021,06,27,17,18,36.30
2021,06,27,17,19,36.30